Location: Bednik
(45.3500°N, 16.3833°E)
Time: 10:31:18
(UTC+00:00)

Cosmos 1802 Rocket - Pass Details

Date: 08 August 2020
Orbit: 953 x 1012 km, 82.9° (Epoch: 20 September)

Event Time Altitude Azimuth Distance (km) Brightness Sun altitude
Exits shadow 21:13:53 51° 136° (SE) 1,246 4.1 -24.3°
Maximum altitude 21:15:06 60° 93° (E) 1,142 4.1 -24.4°
Drops below altitude 10° 21:21:22 10° 15° (NNE) 2,777 7.0 -24.9°
Sets 21:23:55 0° 12° (NNE) 3,723 7.8 -25.1°
